星链-6154 (STARLINK-6154 )

导读

STARLINK-6154是美国SpaceX公司“星链”低轨互联网通信星座的一员,于2023年6月23日发射升空。作为星链组网卫星,它属于量产型卫星,采用平板设计与霍尔推进器,具备自主避撞能力,可通过Ku/Ka波段提供全球宽带互联网服务,填补地面网络覆盖盲区,助力实现全球覆盖接入。

基本信息
目录编号:
57123
目录名称:
STARLINK-6154
国际标识:
2023-090Y
轨道中心:
EARTH
卫星名称:
星链-6154
卫星全名:
星链-6154 (STARLINK-6154 )
卫星状态:
在轨 (已飞行1087 天)
发射日期:
2023-06-23 UTC
国别 :
美国 (US)
星等 :
--
轨道信息
数据来源 国际轨道数据
星历时间: 2026-06-14T09:52:58+0800
20小时前
查看轨道信息
半长轴: 6861.189km
偏心率: 0.0001722
轨道倾角: 43.005°
近地点辐角 263.796°
升交点赤经 97.208°
平近点角 96.270°
近地点: 481.87km
远地点: 484.234km
周期: 94.267分钟
每日圈数: 15.275791
详细信息
固有亮度:
5
最大亮度:
2.4
卫星平台:
Starlink v1.5
覆盖范围:
全球
运营商:
太空探索技术公司
运营商所在国:
美国
制造商(研发单位):
太空探索技术公司
制造商所在国:
美国
使用方式:
暂无
卫星简介
星链(Starlink)计划是由太空探索技术公司(SpaceX)提出的一个巨型低轨卫星互联网星座项目,计划在2019年至2024年间在太空搭建由约1.2万颗卫星组成的“星链”网络,其中1584颗将部署在地球上空550千米处的近地轨道,并从2020年开始工作。该卫星仍在工作。
2D轨道图
3D轨道图
轨道高度分析图
轨道倾角分析图
轨道综合分析图
查看轨道综合分析图